TimePST,TemperatureF,Dew PointF,Humidity,Sea Level PressureIn,VisibilityMPH,Wind Direction,Wind SpeedMPH,Gust SpeedMPH,PrecipitationIn,Events,Conditions,WindDirDegrees,DateUTC
12:55 AM,33.1,28.0,82,30.10,10.0,Calm,Calm,-,N/A,,Mostly Cloudy,0,2012-12-03 08:55:00
1:55 AM,33.1,28.0,82,30.08,10.0,NW,3.5,-,N/A,,Mostly Cloudy,310,2012-12-03 09:55:00
2:55 AM,32.0,28.9,88,30.11,10.0,SSW,3.5,-,N/A,,Mostly Cloudy,210,2012-12-03 10:55:00
3:55 AM,32.0,28.9,88,30.12,10.0,Calm,Calm,-,N/A,,Mostly Cloudy,0,2012-12-03 11:55:00
4:55 AM,32.0,28.0,85,30.14,10.0,Calm,Calm,-,N/A,,Mostly Cloudy,0,2012-12-03 12:55:00
5:55 AM,32.0,28.9,88,30.15,10.0,Calm,Calm,-,N/A,,Mostly Cloudy,0,2012-12-03 13:55:00
6:55 AM,32.0,28.9,88,30.17,10.0,Calm,Calm,-,N/A,,Mostly Cloudy,0,2012-12-03 14:55:00
7:55 AM,33.1,28.9,85,30.19,10.0,Calm,Calm,-,N/A,,Mostly Cloudy,0,2012-12-03 15:55:00
8:55 AM,36.0,30.9,82,30.21,10.0,Calm,Calm,-,N/A,,Mostly Cloudy,0,2012-12-03 16:55:00
9:55 AM,39.0,30.0,70,30.22,10.0,Calm,Calm,-,N/A,,Mostly Cloudy,0,2012-12-03 17:55:00
10:55 AM,44.1,30.0,58,30.20,10.0,Calm,Calm,-,N/A,,Mostly Cloudy,0,2012-12-03 18:55:00
11:55 AM,46.9,28.0,48,30.18,10.0,Calm,Calm,-,N/A,,Mostly Cloudy,0,2012-12-03 19:55:00
12:55 PM,48.9,30.0,48,30.15,10.0,Calm,Calm,-,N/A,,Mostly Cloudy,0,2012-12-03 20:55:00
1:55 PM,52.0,30.9,45,30.12,10.0,Calm,Calm,-,N/A,,Mostly Cloudy,0,2012-12-03 21:55:00
2:55 PM,53.1,30.9,43,30.12,10.0,Calm,Calm,-,N/A,,Mostly Cloudy,0,2012-12-03 22:55:00
3:55 PM,53.1,30.9,43,30.13,10.0,Calm,Calm,-,N/A,,Mostly Cloudy,0,2012-12-03 23:55:00
4:55 PM,50.0,35.1,57,30.13,10.0,ESE,3.5,-,N/A,,Mostly Cloudy,110,2012-12-04 00:55:00
5:55 PM,48.0,33.1,56,30.15,10.0,SE,3.5,-,N/A,,Mostly Cloudy,130,2012-12-04 01:55:00
6:55 PM,46.0,34.0,63,30.18,10.0,Calm,Calm,-,N/A,,Mostly Cloudy,0,2012-12-04 02:55:00
7:55 PM,45.0,35.1,68,30.18,10.0,Calm,Calm,-,N/A,,Mostly Cloudy,0,2012-12-04 03:55:00
8:55 PM,45.0,34.0,65,30.16,10.0,Calm,Calm,-,N/A,,Mostly Cloudy,0,2012-12-04 04:55:00
9:55 PM,41.0,35.1,79,30.18,10.0,Calm,Calm,-,N/A,,Scattered Clouds,0,2012-12-04 05:55:00
10:55 PM,41.0,35.1,79,30.15,10.0,South,4.6,-,N/A,,Mostly Cloudy,170,2012-12-04 06:55:00
11:55 PM,42.1,35.1,76,30.12,10.0,ENE,3.5,-,N/A,,Mostly Cloudy,60,2012-12-04 07:55:00